Terminal Aerodrome Forecast
Issued by NWS Austin/San Antonio, TX

Home | Current Version | Previous Version | Text Only | Print | Product List | Glossary On
Versions: 1 2 3 4 5 6 7 8 9 10 11 12 13 14 15 16 17 18 19 20
000
FTUS44 KEWX 061730
TAFSAT
TAF
KSAT 061730Z 0618/0724 16015G25KT P6SM SCT040
     FM070400 15013KT P6SM SCT025
     FM070600 15012KT P6SM BKN012
     FM071400 16015G25KT P6SM SCT018 BKN025=

USA.gov is the U.S. government's official web portal to all federal, state and local government web resources and services.